sat.trackr.live / text

‹ back to catalog

2024-205K

NORAD 61903 · 2024-205K

PAYLOAD ACTIVE UNKNOWN

§ Identity

Operator
Country
PRC
Launch date
2024-11-11
Launch site
JSC
Launch vehicle
Mass (kg)
RCS (m²)

External: N2YO · Heavens-Above · Gunter

§ Orbital elements

Epoch: 2026-09-22T23:16:44.036832Z

Period
93.93 min
Inclination
97.4036°
Eccentricity
0.0009982
Mean motion
15.33052329 rev/d
Perigee alt
459.9 km
Apogee alt
473.5 km
Semi-major
6,844.8 km
B*
3.4305e-4
RAAN
342.9351°
Arg perigee
56.1310°
Mean anomaly
304.0881°
Rev number
10,361

§ Raw data

2024-205K1 61903U 24205K   26265.96995413  .00010894  00000+0  34305-3 0  99982 61903  97.4036 342.9351 0009982  56.1310 304.0881 15.33052329103619

JSON: /api/v1/satellites/61903 · /tle

For live sub-satellite position, see the globe view (requires WebGL).

§ Visibility from observer

Set your observer location to see the next 7 days of passes ≥ 10°. The values pass through the URL so the page stays shareable.

No JS? Fill the form by hand. The geolocation button needs JavaScript.